Flag for U.S.A. Weather past 2 weeks in Oklahoma City, Oklahoma, U.S.A.

Now
67 °F

Partly cloudy.


Feels Like: 67 °F
Forecast: 68 / 74 °F
Wind: 15 mph from East

Location: Will Rogers World Airport

Current Time: May 7, 2015 at 12:44:27 AM

Latest Report: May 6, 2015 at 11:52 PM


Visibility: 10 mi

Pressure: 29.82 "Hg

Humidity: 81%

Dew point: 61 °F

Location of Oklahoma CityLocation

Historic Weather in Oklahoma City — Graph

°F

Oklahoma City temperature yesterday

Maximum temperature yesterday: 76 °F (at 2:52 PM)
Minimum temperature yesterday: 60 °F (at 1:52 AM)
Average temperature yesterday: 67 °F

Past Weeks' High & Low Weather Summary

 TemperatureHumidityPressure
High83 °F (Apr 25, 3:52 PM)94% (Apr 24, 8:02 AM)30.16 "Hg (Apr 24, 8:02 AM)
Low45 °F (Apr 29, 1:52 AM)27% (Apr 30, 4:52 PM)29.51 "Hg (Apr 25, 2:52 AM)
Average64 °F70%29.89 "Hg
* Reported Apr 21 10:52 PM — May 6 10:52 PM, Oklahoma City, Weather by CustomWeather, © 2015

Note: Actual official high and low records may vary slightly from our data, if they occured in-between our weather recording intervals... More about our weather records

Advertising

Oklahoma City weather history for previous 24 hours

 ConditionsComfort  
Time TempWeatherWind HumidityBarometerVisibility
10:52 PM
Wed, May 6
65 °FPassing clouds.18 mph85%29.82 "Hg10 mi
9:57 PM64 °FStrong thunderstorms. Fog.24 mph94%29.84 "Hg2 mi
9:00 PM63 °FStrong thunderstorms. Fog.12 mph94%29.88 "Hg1 mi
7:57 PM64 °FStrong thunderstorms. Fog.46 mph88%29.80 "Hg0 mi
6:52 PM67 °FThunderstorms. Mostly cloudy.12 mph81%29.79 "Hg2 mi
5:52 PM65 °FThunderstorms. Mostly cloudy.30 mph81%29.75 "Hg5 mi
4:52 PM71 °FThunderstorms. Broken clouds.15 mph87%29.79 "Hg8 mi
3:52 PM72 °FPartly sunny.18 mph81%29.78 "Hg10 mi
2:52 PM76 °FMostly cloudy.21 mph74%29.82 "Hg10 mi
1:52 PM73 °FMostly cloudy.21 mph76%29.84 "Hg10 mi
12:52 PM75 °FMostly cloudy.22 mph76%29.85 "Hg10 mi
11:52 AM73 °FMostly cloudy.20 mph76%29.86 "Hg10 mi
10:52 AM71 °FOvercast.23 mph81%29.87 "Hg10 mi
9:52 AM70 °FOvercast.16 mph84%29.88 "Hg10 mi
8:52 AM69 °FMostly cloudy.16 mph84%29.88 "Hg10 mi
7:52 AM68 °FMostly cloudy.16 mph87%29.88 "Hg10 mi
6:52 AM67 °FMostly cloudy.16 mph90%29.86 "Hg10 mi
6:00 AM66 °FLow clouds.18 mph94%29.88 "Hg10 mi
4:52 AM61 °FOvercast.9 mph90%29.85 "Hg10 mi
3:52 AM60 °FMostly cloudy.7 mph93%29.85 "Hg10 mi
2:52 AM60 °FThunderstorms. Overcast.16 mph90%29.85 "Hg10 mi
1:52 AM60 °FRain. Fog.9 mph90%29.90 "Hg4 mi
1:02 AM61 °FThunderstorms. Fog.13 mph88%29.94 "Hg2 mi
12:57 AM61 °FStrong thunderstorms. Fog.20 mph88%29.95 "Hg1 mi
12:01 AM66 °FThunderstorms. Fog.15 mph94%29.90 "Hg5 mi
Weather by CustomWeather, © 2015

See weather overviewHow to use our weather pages